Location: Goettingen
(51.5300°N, 9.9433°E)
Time: 10:47:10
(UTC+02:00)

ISS - Pass Details

Date: 16 May 2025
Orbit: 416 x 419 km, 51.6° (Epoch: 18 May)

Event Time Altitude Azimuth Distance (km) Brightness Sun altitude
Rises 01:26:19 0° 283° (WNW) 2,362 0.2 -19.3°
Reaches altitude 10° 01:28:36 10° 271° (W) 1,495 -1.0 -19.3°
Enters shadow 01:28:54 12° 268° (W) 1,394 -1.2 -19.3°
